Temperature
7 7 7 7 7 7 7 8 9 10 10 11 12 12 11 10 8 7 5 4 3 2 2 2 3 3 4 4 5 5 5 5 6 6 6 6 6 6 6 6 6 6 6 6
6 7 7 7 7 7 8 8 9 9 9 11 11 10 10 9 8 6 5 3 2 1 1 1 2 3 3 4 4 4 4 4 4 4 4 4 4 4 4 4 4 4 4 3
7 7 7 7 8 8 8 8 9 9 10 11 11 11 10 8 7 5 3 2 1 1 1 1 1 2 2 2 3 3 3 3 3 2 2 2 2 2 3 2 2 2 1 1
7 7 6 10 9 9 8 9 9 9 10 11 10 9 8 6 6 4 3 2 1 1 1 1 1 1 1 2 2 2 2 1 1 1 1 1 1 1 1 1 0 0 -0 -0
7 7 8 10 8 8 8 9 9 9 10 10 9 8 8 6 5 4 4 3 2 1 1 1 1 1 1 1 1 1 1 1 0 0 0 0 -0 -0 -0 -0 -1 -1 -1 -1
7 7 8 10 9 8 9 10 10 9 10 10 8 10 10 6 6 5 4 3 2 2 1 1 1 1 1 1 1 0 0 0 0 0 0 -0 -1 -1 -1 -1 -1 -1 -1 -1
7 7 9 10 8 8 9 10 10 9 9 9 9 9 7 6 5 5 4 4 3 3 2 2 1 1 1 1 1 0 0 0 0 -0 -0 -0 -1 -1 -1 -1 -1 -1 -1 -2
7 7 9 9 8 9 10 9 9 8 8 8 7 7 6 6 5 5 5 4 4 3 3 2 2 1 1 1 1 0 0 0 0 -0 -0 -0 -0 -1 -1 -1 -1 -1 -2 -2
9 9 9 8 9 9 8 8 8 8 8 7 7 6 6 5 5 5 5 4 4 4 3 3 2 2 2 1 1 1 0 0 0 -0 -0 -1 -1 -1 -1 -1 -2 -2 -2 -3
8 9 9 8 8 8 8 8 8 8 8 8 7 7 6 6 5 5 5 4 4 4 3 3 2 2 2 1 1 0 0 0 -0 -0 -0 -1 -1 -1 -1 -2 -2 -2 -3 -3
8 9 8 8 8 8 8 8 8 8 8 8 7 7 6 6 6 5 5 4 4 4 3 3 3 2 2 1 1 1 0 0 -0 -0 -1 -1 -1 -2 -2 -2 -3 -3 -4 -4
9 9 9 9 7 7 7 7 7 7 8 7 7 7 6 6 6 5 5 4 4 4 3 3 3 2 2 1 1 0 0 0 -0 -1 -1 -1 -2 -2 -2 -3 -3 -4 -4 -5
7 6 7 7 7 6 6 7 7 7 7 7 7 6 6 6 5 5 4 4 4 4 3 3 2 2 2 1 1 0 -0 -0 -1 -1 -1 -2 -2 -3 -3 -3 -4 -5 -5 -6
6 6 6 6 6 6 6 6 6 6 6 6 6 6 5 5 5 4 4 4 3 3 3 2 2 2 1 1 1 0 -0 -1 -1 -1 -2 -2 -3 -3 -4 -4 -5 -5 -6 -6
5 5 5 5 5 5 5 5 5 5 5 5 5 5 5 5 4 4 4 3 3 3 2 2 2 2 1 1 0 -0 -0 -1 -1 -1 -2 -2 -3 -3 -4 -4 -5 -6 -6 -7
4 4 4 4 3 3 3 3 3 4 4 5 5 5 4 4 4 3 3 3 2 2 2 2 2 1 1 1 0 -0 -1 -1 -1 -2 -2 -3 -3 -4 -4 -5 -6 -6 -7 -7
3 3 3 3 2 2 2 2 2 3 3 4 4 4 4 3 3 3 2 2 2 2 2 1 1 1 0 0 -0 -1 -1 -1 -2 -2 -2 -3 -3 -4 -5 -5 -6 -6 -7 -7
3 2 2 1 1 1 2 2 2 2 3 3 3 3 3 3 3 3 2 2 1 1 1 1 0 0 -0 -0 -1 -1 -1 -1 -2 -2 -3 -3 -4 -4 -5 -5 -6 -7 -7 -8
2 1 1 1 1 1 1 1 2 2 2 3 3 3 3 3 2 2 1 1 1 1 1 0 -0 -0 -1 -1 -1 -1 -1 -2 -2 -2 -3 -3 -4 -4 -5 -6 -6 -7 -7 -8
1 1 1 1 1 1 1 1 1 2 2 2 3 3 2 2 1 1 1 1 1 1 0 -0 -0 -1 -1 -1 -1 -1 -2 -2 -2 -3 -3 -3 -4 -4 -5 -6 -6 -7 -7 -8
1 1 1 1 1 1 1 1 1 2 2 2 2 2 2 1 1 0 0 0 0 -0 -0 -1 -1 -1 -1 -1 -1 -2 -2 -2 -2 -3 -3 -4 -4 -5 -5 -6 -7 -7 -7 -8
1 1 1 1 1 1 1 1 1 1 1 1 1 1 1 0 0 -0 -0 -0 -0 -0 -1 -1 -1 -1 -1 -2 -2 -2 -2 -2 -3 -3 -3 -4 -4 -5 -6 -6 -7 -7 -7 -8
0 0 0 0 0 0 0 0 0 1 0 0 0 0 0 -0 -0 -1 -1 -1 -1 -1 -1 -1 -1 -1 -2 -2 -2 -2 -2 -3 -3 -3 -4 -4 -5 -5 -6 -6 -7 -7 -7 -8
0 -0 -0 -0 -0 -0 -0 -0 -0 -0 -0 -0 -1 -1 -1 -1 -1 -1 -1 -1 -1 -1 -1 -1 -1 -2 -2 -2 -2 -2 -3 -3 -3 -3 -4 -4 -5 -6 -6 -6 -7 -7 -7 -8
-0 -1 -1 -1 -1 -1 -1 -1 -1 -1 -1 -1 -1 -1 -1 -1 -1 -1 -1 -1 -1 -1 -1 -2 -2 -2 -2 -2 -3 -3 -3 -3 -3 -4 -4 -5 -5 -6 -6 -6 -7 -7 -7 -7
-1 -1 -1 -1 -1 -2 -2 -2 -2 -2 -1 -1 -2 -2 -2 -2 -2 -2 -2 -2 -1 -1 -2 -2 -2 -2 -3 -3 -3 -3 -3 -3 -4 -4 -4 -5 -5 -6 -6 -7 -7 -7 -7 -7
-2 -2 -2 -2 -2 -2 -2 -2 -2 -2 -2 -2 -2 -2 -2 -2 -2 -2 -2 -2 -2 -2 -2 -2 -3 -3 -3 -3 -3 -3 -4 -4 -4 -4 -5 -5 -5 -6 -6 -6 -7 -7 -7 -7
Wind_Speed
2 3 4 5 10 13 12 9 7 5 5 8 8 8 8 7 7 6 5 6 6 7 8 8 9 9 9 10 10 10 10 10 10 9 9 9 9 9 10 10 9 8 9 9
1 3 4 6 10 14 14 13 13 11 11 10 8 6 7 7 6 5 4 4 5 6 7 8 8 9 9 9 10 9 10 10 9 10 10 10 10 10 11 11 11 11 11 10
2 2 2 8 12 15 11 11 11 13 10 8 8 9 8 7 5 3 2 3 4 5 6 6 7 7 8 8 8 9 9 9 10 10 10 10 11 11 12 12 12 12 11 11
2 2 6 1 2 8 13 13 13 11 12 11 11 10 7 4 2 0 0 1 2 3 4 5 6 6 6 7 8 9 9 9 9 9 10 10 11 11 11 10 10 10 11 11
2 3 6 4 4 6 8 7 12 15 15 12 8 6 3 3 2 2 2 1 2 2 3 4 5 5 6 7 8 8 8 8 8 8 9 10 10 10 9 10 10 10 10 11
3 4 4 1 3 5 5 4 5 8 9 7 3 4 0 6 5 4 3 2 2 2 3 3 4 4 6 7 8 8 7 7 8 8 9 10 10 9 9 10 10 10 10 10
6 6 6 2 4 7 5 3 4 4 5 5 5 4 2 6 6 5 5 4 3 3 3 3 3 4 6 7 7 6 6 7 8 8 9 9 9 9 9 9 9 9 9 8
7 7 6 5 8 6 1 2 1 3 4 5 5 3 4 6 7 7 7 6 5 4 4 3 4 5 6 6 5 5 6 7 7 8 7 7 8 8 8 8 8 7 7 7
7 6 1 5 5 2 0 3 3 3 4 4 4 5 6 7 8 8 8 7 6 6 5 4 4 5 6 4 5 6 7 7 7 8 7 6 7 7 6 5 5 4 4 4
6 8 6 6 6 4 4 5 5 5 5 5 6 6 7 7 8 9 9 8 7 7 7 6 5 5 5 6 6 7 7 7 6 7 7 6 5 4 4 4 4 3 3 3
7 6 4 5 5 2 2 3 4 4 5 6 7 7 8 8 9 10 9 9 8 8 8 7 6 6 6 7 7 8 7 6 6 5 6 6 5 5 4 4 3 2 2 1
7 5 4 3 2 1 2 4 5 5 5 5 7 7 8 8 9 10 10 10 9 9 8 8 8 7 7 7 7 8 7 6 5 4 4 4 5 5 7 6 6 5 3 1
2 1 2 2 1 1 4 6 6 6 6 6 6 6 8 7 9 10 11 11 11 10 9 9 8 8 7 7 7 7 7 6 4 4 4 3 3 3 3 4 5 4 3 2
2 2 3 2 1 4 6 7 6 6 5 5 5 5 6 7 9 11 12 11 10 10 10 9 9 8 7 7 7 7 6 5 5 4 3 3 2 2 1 2 2 1 1 3
4 1 2 3 5 5 5 5 6 5 5 4 4 5 7 8 10 10 10 10 10 10 10 10 9 9 8 8 8 7 6 5 4 4 3 3 2 2 2 2 2 2 2 2
2 2 2 4 5 5 6 6 7 7 6 6 5 6 7 8 8 8 9 11 11 12 11 11 10 9 9 8 8 6 5 7 6 4 4 3 3 3 2 2 2 3 3 3
2 2 2 3 5 7 7 7 8 9 8 7 7 6 6 7 7 8 9 10 9 9 10 10 10 9 9 9 8 6 6 7 7 5 4 4 3 3 2 2 3 3 3 4
2 2 4 6 7 9 9 9 8 9 9 8 6 6 7 9 9 9 9 9 8 7 8 9 9 10 10 9 8 6 6 6 5 5 4 4 3 3 2 3 3 4 4 4
0 2 3 5 6 7 8 9 9 9 8 6 5 7 8 8 8 8 8 10 10 10 9 9 13 11 10 10 9 6 6 6 5 5 4 4 4 3 2 3 3 4 4 4
1 2 4 5 5 6 7 7 8 7 5 4 4 5 5 6 6 8 9 9 8 6 7 10 11 10 10 11 11 6 7 7 6 5 4 4 3 3 3 3 4 4 4 5
2 3 4 5 6 6 6 7 6 5 4 2 2 4 4 4 6 7 8 7 6 6 9 13 10 9 9 10 11 7 7 6 6 5 5 4 4 3 3 4 4 4 5 5
2 3 4 5 6 6 6 6 5 5 4 2 1 1 3 4 5 6 7 5 6 10 9 9 8 11 13 13 8 7 7 6 5 5 4 4 4 4 4 4 4 4 5 5
2 3 4 5 5 6 6 6 6 5 4 3 2 1 3 4 4 5 5 4 6 11 10 8 11 16 17 11 7 7 7 7 6 5 5 4 4 4 4 4 4 5 5 6
2 3 4 4 4 5 6 7 7 5 5 4 3 2 2 2 3 4 2 6 10 12 8 11 16 18 17 8 7 7 7 6 6 5 5 4 4 4 4 4 5 5 6 7
2 3 3 4 4 4 5 6 6 5 5 4 4 3 2 2 3 3 3 5 9 11 7 11 17 18 13 8 8 7 7 6 6 5 5 4 4 4 4 4 5 5 6 7
2 2 3 3 3 4 4 4 4 4 4 4 4 3 2 2 2 2 3 4 7 9 8 8 10 13 9 8 8 7 7 6 6 6 5 5 5 5 5 5 7 6 6 7
2 2 2 3 2 3 3 4 4 5 5 5 5 4 3 3 2 2 3 3 5 6 6 7 8 9 8 8 7 7 6 6 5 5 5 4 4 4 5 6 6 6 6 7
Wind_Direction
107 121 162 197 199 198 208 215 219 231 243 263 288 303 310 314 323 329 343 355 1 1 0 1 3 4 5 5 7 8 15 21 20 20 25 31 41 52 60 65 69 76 84 88
164 190 215 237 224 214 221 229 239 256 273 271 282 287 296 308 319 323 341 354 360 1 1 2 3 4 7 11 13 18 27 31 30 38 45 48 53 61 68 71 74 78 82 87
183 173 248 253 228 211 210 214 221 234 245 266 284 298 308 312 310 314 339 354 0 2 4 3 5 8 13 16 23 32 37 38 40 46 53 55 60 65 67 72 76 78 82 88
174 191 241 222 140 204 217 226 222 237 253 269 287 303 301 287 259 257 27 9 11 7 9 11 14 21 28 34 39 43 44 45 47 55 62 63 65 67 68 71 75 77 78 83
204 250 272 265 197 180 192 231 225 233 253 271 295 293 248 168 149 133 114 80 46 32 25 28 32 35 47 52 51 52 49 49 52 61 68 69 68 67 69 73 72 73 75 81
207 248 249 156 136 173 182 197 181 210 243 270 281 281 169 153 156 149 138 128 107 86 71 60 53 58 66 63 59 55 54 58 61 68 74 76 75 74 73 75 76 77 78 81
223 246 266 232 147 157 197 162 159 214 252 260 246 275 100 150 162 159 150 143 132 115 98 80 78 86 80 72 63 61 68 72 71 73 77 81 82 82 85 86 86 87 87 84
206 226 246 153 160 191 209 79 227 258 260 256 250 237 182 180 175 169 164 160 153 140 125 111 111 110 97 82 80 86 88 85 80 80 83 86 89 89 93 98 98 97 97 92
211 226 4 172 197 210 289 268 274 268 260 249 243 230 207 196 186 179 176 169 166 160 147 136 134 135 122 117 119 113 102 94 91 89 86 89 93 97 98 100 103 107 108 105
240 248 245 239 244 256 257 262 273 265 260 242 242 234 213 199 188 182 181 178 173 172 167 157 149 145 138 139 138 128 116 109 105 101 96 91 90 91 95 98 104 108 106 108
238 254 259 241 214 225 282 287 287 276 256 248 244 233 216 203 193 185 181 181 180 182 177 168 160 154 152 152 149 135 125 119 114 107 106 97 85 74 76 68 56 79 90 94
223 213 208 174 122 18 315 310 310 296 276 252 236 234 216 207 194 186 182 180 183 184 180 173 169 163 162 163 159 146 138 136 130 125 119 115 113 100 77 79 87 83 80 50
223 147 232 282 316 27 324 312 307 290 274 268 249 231 215 206 193 186 184 185 187 185 181 176 174 170 169 169 167 162 153 148 144 144 142 139 140 142 136 103 84 66 42 14
176 194 235 233 282 327 315 305 298 286 275 267 253 229 212 203 192 191 191 189 184 179 178 178 178 177 173 170 167 162 155 153 155 155 156 158 162 171 198 229 241 235 3 350
170 196 266 303 306 313 317 311 298 286 281 270 246 226 210 203 200 197 189 179 175 177 180 181 182 178 172 172 169 164 161 160 160 157 157 160 165 179 203 229 257 273 281 283
188 267 276 282 296 310 312 307 296 291 286 272 252 234 220 213 204 191 181 177 179 187 186 186 187 178 171 172 169 167 167 163 160 160 164 172 183 197 213 234 255 272 284 296
192 230 267 285 297 304 302 296 289 288 284 271 258 237 213 200 194 190 187 187 190 189 187 188 184 171 172 174 173 169 164 166 168 169 179 186 193 205 220 243 265 280 288 296
231 264 275 283 291 296 298 296 291 286 280 274 256 216 201 200 201 196 187 179 179 184 191 188 175 169 173 175 175 168 167 167 173 179 181 188 196 204 224 250 270 282 292 294
235 288 297 294 293 293 294 297 297 293 286 270 233 215 210 209 203 188 176 180 188 196 195 182 175 172 175 178 172 169 169 170 174 178 183 189 194 211 232 255 271 282 290 294
33 349 330 321 316 308 305 307 307 303 300 273 227 211 208 205 191 181 184 196 202 193 171 173 175 176 178 178 173 171 173 176 178 179 185 196 207 222 238 256 270 279 285 287
16 354 343 335 329 326 325 323 320 320 320 282 222 216 211 195 185 182 190 206 200 174 172 177 177 178 177 176 175 174 176 178 181 184 190 199 211 226 242 255 266 273 279 284
354 344 340 337 337 338 341 341 342 341 346 337 288 206 185 187 192 200 210 212 184 181 179 181 181 182 179 174 176 177 178 180 182 185 193 201 213 229 243 255 265 272 276 279
339 334 336 340 338 333 343 356 357 353 348 338 313 250 221 214 202 205 218 205 184 189 185 186 186 184 179 174 176 178 180 182 185 190 196 204 215 230 245 257 264 270 275 278
328 334 335 335 337 349 355 351 348 346 342 333 323 295 249 226 222 221 225 194 193 193 193 192 188 185 179 178 178 181 184 186 188 190 195 204 217 230 242 253 262 268 272 276
307 316 325 336 345 345 337 333 334 342 345 340 335 328 300 254 240 227 211 204 200 195 193 194 192 188 182 181 183 185 186 189 188 188 196 206 217 229 242 250 257 266 271 273
281 299 307 312 314 319 323 327 329 330 331 328 325 321 316 304 270 234 217 208 206 198 191 189 191 190 186 185 187 187 186 189 195 198 201 209 223 233 244 252 261 264 268 272
265 280 292 300 304 314 317 317 316 318 320 316 312 308 304 296 276 247 228 211 205 199 194 193 192 188 185 184 185 185 183 185 190 195 201 212 222 234 245 253 260 266 270 273
Height
1483 1484 1486 1486 1487 1489 1490 1486 1485 1479 1481 1476 1476 1477 1477 1477 1476 1475 1473 1471 1469 1467 1464 1462 1460 1457 1455 1452 1449 1447 1444 1442 1440 1438 1436 1434 1433 1432 1431 1431 1431 1432 1432 1432
1487 1485 1486 1485 1483 1484 1485 1484 1482 1482 1480 1474 1475 1475 1475 1474 1473 1472 1471 1469 1467 1465 1463 1460 1458 1456 1453 1451 1448 1446 1444 1441 1439 1437 1435 1433 1432 1431 1430 1430 1430 1431 1431 1432
1481 1484 1485 1479 1473 1476 1478 1477 1478 1478 1474 1471 1472 1472 1472 1471 1470 1469 1468 1467 1465 1463 1461 1459 1457 1454 1452 1450 1448 1446 1444 1442 1440 1438 1436 1434 1433 1432 1431 1431 1431 1432 1433 1433
1481 1484 1484 1467 1468 1469 1471 1471 1473 1472 1470 1470 1470 1470 1469 1468 1468 1467 1466 1465 1463 1461 1460 1458 1456 1454 1452 1450 1449 1447 1445 1443 1441 1439 1438 1436 1435 1435 1434 1434 1435 1435 1436 1438
1480 1477 1469 1464 1466 1468 1470 1468 1467 1469 1468 1468 1468 1467 1465 1465 1465 1465 1464 1463 1461 1460 1459 1457 1456 1454 1453 1451 1450 1448 1447 1445 1443 1442 1441 1440 1439 1439 1439 1439 1440 1440 1441 1442
1478 1477 1467 1461 1463 1465 1467 1464 1463 1465 1465 1466 1467 1463 1463 1464 1463 1463 1462 1461 1461 1460 1459 1458 1456 1456 1455 1453 1452 1451 1450 1448 1447 1446 1445 1444 1444 1444 1444 1444 1445 1445 1446 1447
1475 1473 1462 1460 1463 1466 1466 1461 1462 1463 1464 1464 1464 1463 1463 1462 1462 1462 1462 1461 1461 1460 1459 1459 1458 1457 1457 1456 1455 1454 1453 1452 1451 1450 1449 1449 1448 1448 1448 1449 1449 1450 1450 1450
1469 1469 1463 1460 1462 1462 1460 1461 1461 1461 1461 1461 1461 1460 1460 1460 1460 1460 1460 1461 1461 1461 1460 1460 1459 1459 1459 1458 1458 1457 1456 1456 1455 1454 1453 1453 1453 1452 1452 1453 1453 1453 1453 1452
1460 1459 1457 1458 1458 1459 1459 1459 1459 1459 1458 1458 1457 1457 1457 1457 1458 1458 1459 1460 1460 1461 1461 1461 1461 1461 1461 1460 1460 1460 1459 1459 1458 1457 1457 1456 1456 1456 1455 1455 1455 1454 1454 1454
1457 1454 1455 1456 1456 1457 1457 1457 1456 1456 1456 1455 1455 1454 1454 1454 1455 1456 1457 1458 1459 1460 1460 1461 1461 1461 1461 1461 1461 1461 1461 1460 1460 1459 1459 1459 1458 1458 1457 1457 1456 1455 1455 1454
1453 1452 1453 1452 1453 1454 1454 1454 1454 1453 1453 1452 1451 1451 1451 1451 1452 1453 1454 1455 1457 1458 1459 1460 1460 1461 1461 1461 1462 1462 1462 1461 1461 1461 1460 1460 1459 1459 1458 1457 1457 1456 1454 1453
1447 1448 1449 1450 1451 1451 1451 1451 1451 1450 1449 1448 1448 1447 1447 1448 1448 1449 1451 1453 1454 1456 1457 1458 1459 1460 1461 1461 1461 1462 1462 1462 1462 1461 1461 1461 1460 1459 1458 1457 1455 1454 1453 1452
1445 1446 1447 1448 1448 1448 1448 1448 1447 1446 1445 1444 1444 1443 1443 1444 1444 1446 1447 1449 1451 1453 1454 1456 1457 1458 1459 1460 1460 1461 1462 1462 1461 1461 1461 1460 1460 1459 1457 1456 1454 1452 1451 1449
1442 1444 1445 1445 1446 1445 1445 1444 1443 1442 1441 1440 1439 1439 1439 1440 1440 1441 1443 1445 1448 1450 1451 1453 1455 1456 1457 1458 1459 1460 1460 1461 1461 1460 1460 1459 1459 1457 1456 1454 1453 1450 1449 1447
1440 1441 1442 1442 1442 1441 1440 1439 1438 1438 1437 1436 1435 1435 1435 1435 1436 1438 1440 1442 1444 1446 1448 1450 1452 1453 1455 1456 1457 1458 1459 1459 1459 1459 1459 1458 1457 1455 1454 1452 1450 1448 1446 1444
1437 1438 1439 1439 1438 1437 1436 1435 1434 1433 1432 1432 1431 1431 1431 1432 1433 1434 1436 1437 1439 1441 1444 1446 1448 1450 1452 1454 1455 1456 1457 1457 1458 1457 1457 1456 1454 1453 1451 1450 1448 1445 1443 1441
1435 1435 1435 1435 1435 1434 1433 1431 1430 1429 1428 1428 1427 1427 1427 1428 1428 1430 1431 1433 1436 1438 1441 1443 1445 1447 1449 1451 1453 1454 1455 1455 1455 1455 1454 1453 1452 1451 1449 1447 1445 1443 1440 1438
1432 1432 1432 1432 1431 1430 1428 1427 1426 1425 1424 1423 1423 1423 1423 1423 1424 1426 1428 1429 1432 1434 1436 1439 1442 1444 1446 1448 1450 1451 1452 1452 1453 1452 1452 1451 1449 1448 1446 1444 1442 1440 1437 1435
1429 1429 1429 1428 1427 1426 1425 1423 1421 1420 1419 1419 1419 1419 1419 1420 1421 1422 1424 1425 1427 1429 1432 1435 1438 1440 1443 1445 1447 1448 1449 1450 1450 1450 1449 1448 1447 1445 1443 1441 1439 1437 1434 1432
1428 1427 1427 1426 1425 1423 1421 1419 1418 1417 1415 1415 1415 1415 1415 1416 1417 1418 1419 1421 1422 1425 1428 1431 1434 1436 1439 1442 1444 1445 1446 1447 1447 1447 1446 1445 1444 1442 1440 1438 1436 1434 1431 1429
1427 1426 1425 1424 1423 1421 1419 1417 1415 1414 1413 1412 1412 1412 1412 1413 1413 1414 1415 1416 1419 1421 1424 1427 1430 1433 1436 1438 1440 1442 1443 1443 1444 1443 1443 1442 1440 1439 1437 1435 1433 1431 1429 1426
1426 1425 1424 1423 1421 1419 1417 1415 1414 1412 1411 1410 1410 1409 1409 1409 1410 1410 1411 1413 1415 1417 1419 1422 1426 1429 1432 1435 1437 1438 1439 1440 1440 1440 1439 1438 1437 1435 1433 1432 1430 1428 1426 1424
1425 1424 1423 1421 1420 1418 1416 1414 1413 1411 1410 1409 1408 1407 1407 1407 1407 1407 1407 1409 1411 1413 1416 1419 1422 1426 1429 1431 1433 1434 1436 1436 1436 1436 1436 1435 1433 1432 1430 1429 1427 1425 1423 1421
1424 1423 1422 1420 1419 1417 1415 1413 1411 1410 1408 1407 1406 1405 1404 1404 1404 1404 1405 1406 1407 1410 1412 1415 1419 1422 1424 1427 1429 1430 1432 1432 1432 1432 1432 1431 1430 1428 1427 1425 1424 1422 1420 1418
1423 1422 1420 1419 1417 1416 1414 1412 1410 1409 1407 1406 1404 1403 1402 1402 1401 1401 1402 1403 1404 1406 1409 1412 1415 1417 1420 1422 1424 1426 1427 1428 1428 1428 1428 1427 1426 1425 1423 1422 1420 1418 1416 1414
1421 1420 1419 1417 1416 1414 1412 1410 1409 1407 1405 1404 1402 1401 1400 1399 1398 1398 1399 1400 1401 1403 1405 1408 1410 1413 1415 1418 1420 1421 1423 1424 1424 1424 1424 1423 1422 1421 1420 1418 1416 1415 1413 1411
1419 1418 1416 1415 1414 1412 1410 1409 1407 1405 1403 1402 1400 1399 1398 1397 1396 1396 1396 1396 1398 1399 1401 1403 1405 1408 1410 1413 1415 1417 1418 1419 1420 1420 1419 1419 1418 1417 1416 1414 1413 1411 1409 1407